Regional Weather Roundup
Issued by NWS

Home | Current Version | Previous Version | Text Only | Print | Product List | Glossary Off
Versions: 1 2 3 4 5 6 7 8 9 10 11 12 13 14 15 16 17 18 19 20 21 22 23 24 25 26 27 28 29 30 31 32 33 34 35 36 37 38 39 40 41 42 43 44 45 46 47 48 49 50

000
ASUS43 KFSD 210502
RWRSD

WEATHER ROUNDUP FOR SOUTH DAKOTA
NATIONAL WEATHER SERVICE SIOUX FALLS SD
1200 AM CDT FRI JUL 21 2017

NOTE: "FAIR" INDICATES FEW OR NO CLOUDS BELOW 12,000 FEET WITH NO
SIGNIFICANT WEATHER AND/OR OBSTRUCTIONS TO VISIBILITY.


SDZ001>005-009-010-012>017-210600-
NORTHWEST AND NORTH CENTRAL SOUTH DAKOTA

CITY           SKY/WX    TMP DP  RH WIND       PRES   REMARKS
BUFFALO          N/A     69  62  78 S14G24    29.82S
FAITH            N/A     70  64  81 NE23G36   29.97R
MOBRIDGE       LGT RAIN  71  65  81 NE25G38   29.92F
$$

SDZ012>016-024>037-041>051-057-063-072>074-210600-
SOUTHWEST AND SOUTH CENTRAL SOUTH DAKOTA

CITY           SKY/WX    TMP DP  RH WIND       PRES   REMARKS
RAPID CTY ARPT CLOUDY    80  60  50 CALM      29.92R
PIERRE         NOT AVBL
CUSTER         CLOUDY    75  55  49 W16G23    30.12R
PHILIP         MOCLDY    80  61  52 N9        29.88R
PINE RIDGE     CLOUDY    81  65  58 SE9       29.93R
SPEARFISH      TSTM      70  63  78 W12G20    30.06R
WINNER         FAIR      81  72  74 SE12      29.88F
$$

SDZ004>011-016>023-039-040-210600-
NORTHEAST SOUTH DAKOTA

CITY           SKY/WX    TMP DP  RH WIND       PRES   REMARKS
ABERDEEN       CLOUDY    72  69  90 NE5       29.93S
WATERTOWN      CLOUDY    72  67  84 SE5       29.96R
BROOKINGS      CLOUDY    73  68  84 SE12      29.96F
SISSETON         N/A     69  68  96 S3        29.94R
$$

SDZ017-020-022-023-036>040-048>070-210600-
SOUTHEAST SOUTH DAKOTA

CITY           SKY/WX    TMP DP  RH WIND       PRES   REMARKS
SIOUX FALLS    CLEAR     77  73  87 E7        29.92F
HURON          CLOUDY    76  70  82 SE8       29.91R
CHAMBERLAIN    CLEAR     78  74  87 E8        29.88R
MITCHELL       CLEAR     76  73  91 E7        29.88F
YANKTON        CLEAR     75  70  84 E3        29.89F
$$

ABBREVIATIONS USED IN REMARKS
   TC - TEMPERATURE IN CELSIUS
  WCI - WIND CHILL INDEX
   HX - HEAT INDEX
  VSB - VISIBILITY




USA.gov is the U.S. government's official web portal to all federal, state and local government web resources and services.